This demonstration page uses our WeatherBlox Daily Observations layout. Learn more.

Left ArrowRight Arrow

41.12389, -100.76542

Hourly Observations for March 14, 2020

Temp ( °F °C ) Dew Point ( °F °C ) Humidity (%) Winds ( mph kmh ) Pressure ( in mb ) Visibility ( mi km ) Precip ( " mm )
12:18 am 00:18 Cloudy with Light Snow 31 -0.6 27 -2.8 85 85 SE 18 30 30.34 1027 3 5 0.01 0.25
12:22 am 00:22 Cloudy with Light Snow 31 -0.6 27 -2.8 85 85 SE 17 28 30.34 1027 3 4 0.01 0.25
12:34 am 00:34 Windy with Snow Likely 30 -1.1 27 -2.8 88 88 SE 22 35 30.35 1028 2 3 0.02 0.51
12:48 am 00:48 Windy with Snow Likely 30 -1 27 -3 86 86 SSE 24 39 30.34 1027 2 3 0.02 0.51
12:53 am 00:53 Windy with Snow Likely 30 -1.1 27 -2.8 88 88 SE 23 37 30.28 1025 3 4 0.02 0.51
1:01 am 01:01 Cloudy with Light Snow 30 -1.1 27 -2.8 88 88 SE 18 30 30.34 1027 3 5 0.00 0.00
1:08 am 01:08 Cloudy with Light Snow 30 -1.1 27 -2.8 88 88 SE 17 28 30.34 1027 3 4 0.01 0.25
1:15 am 01:15 Cloudy with Light Snow 30 -1.1 27 -2.8 88 88 SE 16 26 30.34 1027 2 3 0.01 0.25
1:31 am 01:31 Cloudy with Light Snow 30 -1.1 27 -2.8 88 88 SE 18 30 30.34 1027 2 3 0.01 0.25
1:36 am 01:36 Windy with Snow Likely 30 -1.1 27 -2.8 88 88 SE 20 31 30.34 1027 1 2 0.01 0.25
1:46 am 01:46 Windy with Snow Likely 30 -1.1 27 -2.8 88 88 SE 20 31 30.33 1027 2 2 0.02 0.51
1:53 am 01:53 Cloudy with Light Snow 30 -1.1 27 -2.8 88 88 SE 17 28 30.28 1025 3 4 0.02 0.51
2:11 am 02:11 Cloudy with Light Snow 30 -1.1 27 -2.8 88 88 SE 18 30 30.35 1028 4 6 0.01 0.25
2:53 am 02:53 Cloudy 30 -1.1 27 -2.8 88 88 SE 17 28 30.28 1025 10 16 0.01 0.25
3:43 am 03:43 Cloudy with Light Freezing Rain 30 -1.1 27 -2.8 88 88 SE 18 30 30.34 1027 8 13 0.00 0.00
3:53 am 03:53 Cloudy with Light Freezing Rain 30 -1.1 27 -2.8 88 88 SE 17 28 30.29 1026 8 13 0.00 0.00
4:08 am 04:08 Cloudy 30 -1.1 27 -2.8 88 88 SE 16 26 30.34 1027 9 14 0.00 0.00
4:53 am 04:53 Cloudy with Light Freezing Rain 30 -1.1 27 -2.8 88 88 SE 15 24 30.28 1026 6 10 0.00 0.00
5:21 am 05:21 Cloudy with Light Snow 30 -1.1 27 -2.8 88 88 SE 16 26 30.33 1027 6 10 0.00 0.00
5:53 am 05:53 Cloudy with Light Wintry Mix 30 -1.1 27 -2.8 88 88 SE 16 26 30.28 1025 6 10 0.00 0.00
6:53 am 06:53 Cloudy 30 -1.1 27 -2.8 88 88 SE 16 26 30.29 1026 10 16 0.00 0.00
7:53 am 07:53 Cloudy 31 -0.6 27 -2.8 85 85 SE 16 26 30.31 1026 9 14 0.00 0.00
8:53 am 08:53 Cloudy 31 -0.6 28 -2.2 89 89 SE 17 28 30.33 1027 7 11 0.00 0.00
9:53 am 09:53 Cloudy 31 -0.6 28 -2.2 89 89 SE 16 26 30.36 1028 9 14 0.00 0.00
10:53 am 10:53 Cloudy 32 0 28 -2.2 85 85 SSE 17 28 30.37 1029 10 16 0.00 0.00
11:53 am 11:53 Cloudy 32 0 29 -1.7 88 88 SSE 16 26 30.38 1029 10 16 0.00 0.00
12:53 pm 12:53 Cloudy 32 0 28 -2.2 85 85 SE 18 30 30.40 1029 10 16 0.00 0.00
1:53 pm 13:53 Cloudy 32 0 28 -2.2 85 85 SE 21 33 30.41 1030 10 16 0.00 0.00
2:53 pm 14:53 Cloudy 32 0 29 -1.7 88 88 SE 16 26 30.40 1030 10 16 0.00 0.00
3:53 pm 15:53 Cloudy 32 0 28 -2.2 85 85 SE 16 26 30.40 1030 10 16 0.00 0.00
4:53 pm 16:53 Cloudy 32 0 28 -2.2 85 85 SE 17 28 30.41 1030 10 16 0.00 0.00
5:53 pm 17:53 Cloudy 32 0 28 -2.2 85 85 SE 16 26 30.43 1030 10 16 0.00 0.00
6:38 pm 18:38 Cloudy 31 -0.6 28 -2.2 89 89 SE 15 24 30.48 1032 10 16 0.00 0.00
6:53 pm 18:53 Cloudy with Mist and Fog 31 -0.6 28 -2.2 89 89 SE 16 26 30.45 1031 5 8 0.00 0.00
7:09 pm 19:09 Cloudy with Mist and Fog 31 -0.6 28 -2.2 89 89 SE 15 24 30.49 1033 2 3 0.00 0.00
7:16 pm 19:16 Cloudy with Mist and Fog 31 -0.6 28 -2.2 89 89 SE 15 24 30.49 1033 2 2 0.00 0.00
7:30 pm 19:30 Cloudy with Mist and Fog 30 -1.1 28 -2.2 92 92 ESE 15 24 30.50 1033 1 2 0.00 0.00
7:53 pm 19:53 Cloudy with Mist and Fog 30 -1.1 28 -2.2 92 92 SE 15 24 30.47 1032 1 2 0.00 0.00
8:34 pm 20:34 Cloudy with Mist and Fog 30 -1.1 28 -2.2 92 92 SE 16 26 30.53 1034 2 2 0.00 0.00
8:43 pm 20:43 Cloudy with Mist and Fog 30 -1.1 28 -2.2 92 92 SE 14 22 30.53 1034 1 2 0.00 0.00
8:53 pm 20:53 Cloudy with Mist and Fog 30 -1.1 28 -2.2 92 92 SE 15 24 30.48 1032 2 2 0.00 0.00
9:08 pm 21:08 Mostly Cloudy with Mist and Fog 30 -1.1 28 -2.2 92 92 SE 15 24 30.53 1034 1 2 0.00 0.00
9:41 pm 21:41 Cloudy with Mist and Fog 30 -1.1 27 -2.8 88 88 SE 15 24 30.54 1034 2 3 0.00 0.00
9:50 pm 21:50 Cloudy 30 -1 27 -3 86 86 SSE 16 26 30.54 1034 7 11 0.00 0.00
9:53 pm 21:53 Cloudy 29 -1.7 27 -2.8 92 92 SSE 16 26 30.50 1033 8 13 0.00 0.00
10:24 pm 22:24 Cloudy 29 -1.7 27 -2.8 92 92 SSE 10 17 30.56 1035 10 16 0.00 0.00
10:53 pm 22:53 Cloudy 29 -1.7 27 -2.8 92 92 SSE 13 20 30.52 1034 10 16 0.00 0.00
11:53 pm 23:53 Cloudy 29 -1.7 26 -3.3 89 89 SE 13 20 30.52 1034 10 16 0.00 0.00

Powered by AerisWeather